Location: Gaussan
(43.2276°N, 0.4904°E)
Time: 09:00:09
(UTC+00:00)

Daily predictions for brighter satellites

Satellite Brightness Start Highest point End
(mag) Time Altitude Azimuth Time Altitude Azimuth Time Altitude Azimuth
Cosmos 1125 Rocket 3.6 20:05:22 10° NNW 20:10:37 71° ENE 20:15:47 10° SSE
USA 186 3.4 20:12:01 10° E 20:12:52 11° ENE 20:13:42 10° NE
PAYLOAD B 4.3 20:07:22 10° SSE 20:12:56 85° ENE 20:18:35 10° NNW
Cosmos 2279 Rocket 4.5 20:12:10 10° SSW 20:18:23 68° W 20:24:36 10° N
Cosmos 1812 Rocket 4.3 20:16:54 10° SSW 20:21:15 58° W 20:25:37 10° N
Terra 2.0 20:20:20 10° S 20:25:01 77° WSW 20:29:45 10° NNW
CENTAUR R/B 2.8 20:21:05 10° SW 20:26:25 69° NW 20:33:14 10° NNE
Cosmos 44 Rocket 3.6 20:24:10 10° NNW 20:29:18 62° NE 20:34:01 11° SE
Meteor 1-27 Rocket 3.8 20:26:20 10° S 20:31:57 88° W 20:37:31 10° N
Cosmos 2208 Rocket 4.1 20:28:31 10° S 20:33:33 53° ESE 20:38:34 10° NNE
CZ-3 Stage 3 4.0 20:30:58 10° WSW 20:34:28 13° SW 20:36:50 10° SSW
BREEZE-M DEB (TANK) 4.4 20:33:45 10° WNW 20:36:12 21° N 20:37:54 10° NE
SPOT 3 Rocket 4.4 20:33:59 11° SE 20:38:23 35° ENE 20:43:01 10° N
Cosmos 2082 4.4 20:36:46 10° SW 20:42:17 59° WNW 20:47:52 10° NNE
Meteor 1-11 Rocket 4.5 20:37:25 10° NNW 20:42:45 52° W 20:48:07 10° S
Cosmos 2227 4.2 20:37:43 10° S 20:43:22 66° ESE 20:49:06 10° NNE
YAOGAN 11 4.2 20:40:14 10° NNE 20:44:38 57° E 20:48:56 10° S
Meteor 2-20 Rocket 4.3 20:40:15 10° S 20:45:58 71° E 20:51:55 10° NNE
CZ-4 R/B 3.4 20:43:20 10° SSW 20:46:21 23° W 20:49:26 10° NW
Ariane Rocket 4.0 20:44:08 13° SE 20:48:02 33° ENE 20:52:32 10° N
Okean-O 2.6 20:44:49 11° SSE 20:48:59 80° ENE 20:53:23 10° N
Cosmos 2266 Rocket 4.2 20:43:37 10° N 20:49:49 76° W 20:56:07 10° S
Helios 1A Rocket 3.3 20:47:35 10° N 20:50:35 46° WNW 20:53:35 10° SSW
Spot 2 Rocket 3.5 20:45:45 10° SSE 20:50:48 86° WSW 20:55:56 10° NNW
CZ-4B R/B 3.9 20:48:44 10° S 20:54:04 53° W 20:59:20 10° NNW
NOSS 3-2 (A) 2.9 20:49:20 10° SSW 20:54:09 70° ESE 20:59:51 10° NE
Cosmos 1842 Rocket 3.5 20:51:50 10° S 20:56:14 72° E 21:00:40 10° NNE
Cosmos 1340 Rocket 3.6 20:54:22 10° N 20:57:46 31° ENE 20:59:47 19° SE
USA 215 4.4 20:52:21 10° E 20:58:14 38° NNE 21:04:09 10° NW
Cosmos 773 Rocket 4.2 20:53:27 10° SSW 20:58:34 74° WNW 21:03:44 10° NNE
Cosmos 1603 4.1 20:53:50 10° NNW 20:59:27 53° ENE 21:03:42 17° SE
BREEZE-M DEB (TANK) 0.7 20:59:00 10° WNW 21:01:08 80° SSW 21:01:54 31° SE
ADEOS 4.3 20:56:16 10° S 21:01:17 50° W 21:06:22 10° NNW
OAO 3 Rocket 4.0 20:59:57 10° WSW 21:03:51 29° S 21:05:59 20° SE
USA 245 3.4 21:03:10 20° SE 21:05:35 51° ENE 21:08:46 10° N
Cosmos 1844 Rocket 2.7 21:00:15 10° SSW 21:05:49 84° WNW 21:11:25 10° NNE
EXPRESS MD2 2.8 21:02:30 10° WNW 21:06:47 69° SW 21:08:15 26° SE
SL-14 R/B 3.0 21:06:08 15° S 21:09:07 70° E 21:12:50 10° NNE
Meteor 2-10 Rocket 3.8 21:04:01 10° NNW 21:09:52 85° W 21:14:48 14° S
Cosmos 1238 Rocket 4.3 21:05:51 10° SSW 21:10:32 47° WNW 21:15:10 10° N
Cosmos 1553 Rocket 4.5 21:07:18 16° SSE 21:11:59 44° E 21:17:57 10° NNE
CZ-4C R/B 3.2 21:08:32 10° NW 21:15:46 70° WSW 21:22:42 18° SSE
Cosmos 1151 Rocket 3.4 21:14:27 22° SSE 21:16:51 44° E 21:20:58 10° NNE
Cosmos 1833 Rocket 4.4 21:14:30 10° N 21:18:48 22° NE 21:22:56 11° E
CZ-2C R/B 3.4 21:23:48 22° E 21:24:10 23° ENE 21:26:24 10° NNE
SL-24 R/B - RUBIN 2 4.5 21:22:08 10° SW 21:26:36 51° NW 21:30:53 10° NNE
Cosmos 1844 4.2 21:21:15 10° SW 21:26:59 65° WNW 21:32:46 10° NNE
CZ-4B R/B 3.5 21:24:45 23° SSE 21:27:53 70° ENE 21:33:02 10° N
Okean O Rocket 2.8 21:24:41 11° SSW 21:28:26 38° W 21:32:30 10° NNW
Cosmos 1953 4.0 21:26:36 10° NNE 21:28:48 15° ENE 21:29:35 15° E
OAO 2 Rocket 4.1 21:29:01 10° SW 21:33:37 31° S 21:35:03 27° SE
In-Cosmos 22 4.3 21:28:00 10° SSW 21:33:45 81° W 21:39:33 10° N
NOSS 3-2 (C) 3.1 21:31:30 14° SSW 21:35:34 53° ESE 21:41:04 10° NE
BlueWalker 3 4.2 21:37:16 10° WSW 21:38:17 11° SW 21:39:18 10° SW
NOSS 2-3 (C) 4.3 21:42:37 24° E 21:42:37 24° E 21:44:41 10° ENE
USA 186 3.6 21:41:05 13° WSW 21:41:58 16° W 21:43:30 10° NW
Cosmos 1461 2.3 21:40:41 10° NNW 21:44:12 89° ENE 21:45:06 47° SE
CZ-4B R/B 3.1 21:42:34 28° S 21:44:24 60° W 21:48:18 10° NNW
ATLAS 2AS CENTAUR R/B 4.4 21:45:25 10° WNW 21:50:27 22° WSW 21:55:31 10° SSW
Cosmos 2344 3.9 21:48:48 20° S 21:53:49 41° ESE 22:00:28 10° NE
Sich 1 4.0 21:51:02 10° NNW 21:55:02 40° W 21:57:32 20° SSW
Cosmos 1500 Rocket 3.4 21:50:46 10° N 21:55:06 86° W 21:56:47 37° S
Helios 1A 3.9 21:53:56 10° NE 21:57:23 28° E 21:57:27 28° E
Iridium 4 Rocket 3.6 21:55:05 31° SSE 21:57:44 68° E 22:02:51 10° N
Helios 1B rocket 4.3 21:57:42 13° ENE 21:58:19 13° ENE 22:00:05 10° NNE
BREEZE-M R/B 4.0 21:57:27 31° S 21:59:10 43° SE 22:06:39 10° ENE
GP-B 3.0 21:55:18 10° N 21:59:41 86° E 22:01:23 37° S
Cosmos 1607 4.0 21:55:46 10° NNW 22:02:13 84° ENE 22:05:32 31° SE
Cosmos 1241 Rocket 4.4 22:02:40 22° SSW 22:06:39 63° ESE 22:12:48 10° NE
NOSS 2-3 (D) 3.0 22:07:03 28° SW 22:08:53 86° NW 22:12:38 10° NE
Cosmos 2285 Rocket 4.0 22:03:28 10° NNW 22:09:49 77° WSW 22:13:01 32° S
Cosmos 1538 Rocket 3.9 22:11:36 33° S 22:13:58 77° ESE 22:19:11 10° NNE
Cosmos 2315 Rocket 4.3 22:13:38 33° SE 22:16:03 50° E 22:22:01 10° NNE
Cosmos 1943 Rocket 3.2 22:16:33 27° ESE 22:17:06 27° ESE 22:21:48 10° NE
Cosmos 1386 Rocket 4.5 22:11:04 10° N 22:17:29 87° W 22:20:34 33° S
Iridium 45 4.1 22:18:34 76° N 22:18:34 76° N 22:21:25 10° N
Cosmos 1328 Rocket 3.6 22:24:40 53° SE 22:25:24 63° E 22:29:43 10° NNE
Ariane Rocket 4.3 22:24:12 20° SW 22:26:51 32° W 22:31:22 10° NNW
Lacrosse 5 rocket 2.1 22:30:44 33° ENE 22:30:44 33° ENE 22:32:52 10° NE
NOSS 2-3 (E) 4.3 22:33:45 15° WSW 22:36:33 42° NW 22:40:09 10° NNE
Cosmos 1666 Rocket 3.4 22:32:28 10° N 22:36:50 79° E 22:37:29 62° SSE
Cosmos 1703 4.3 22:37:13 26° W 22:37:48 27° WNW 22:40:34 10° NNW
USA 215 3.2 22:37:28 32° SE 22:40:49 89° SW 22:47:24 10° NW
Cosmos 1743 Rocket 4.5 22:39:39 10° NNW 22:43:41 39° W 22:44:49 33° SW
GEOS 3 Rocket 4.2 22:45:16 29° ESE 22:47:48 54° NE 22:53:03 10° NNW
S3M 4.1 22:48:41 33° SSW 22:51:31 70° W 22:57:39 10° N
Timation 1 Rocket 4.4 22:46:40 10° NNW 22:52:39 70° ENE 22:54:45 41° SE
Cosmos 1515 Rocket 3.8 22:55:38 52° ESE 22:55:46 52° E 23:00:00 10° NNE
Meteor 1-15 Rocket 4.4 22:53:39 10° NNW 22:59:26 67° W 23:01:13 44° SSW
USA 59 Rocket 1.4 23:01:29 20° ENE 23:01:29 20° ENE 23:02:36 10° NE
Spot 4 4.1 22:59:30 48° ESE 23:00:28 58° ENE 23:05:13 10° N
ARGOS Delta rocket 4.0 22:55:36 10° NNE 23:01:00 85° E 23:02:18 53° S
Cosmos 1833 Rocket 2.8 22:57:37 10° NNW 23:03:13 66° WSW 23:04:36 49° S
Cosmos 1953 3.3 23:00:37 10° NNW 23:03:46 31° W 23:03:46 31° W
Cosmos 1709 Rocket 4.2 23:00:50 10° NNW 23:07:07 63° W 23:09:28 39° SSW
Meteor 1-16 Rocket 4.1 23:01:40 10° N 23:07:13 86° W 23:08:42 52° S
Cosmos 2082 Rocket 3.6 23:03:55 10° N 23:08:52 30° NE 23:11:51 19° E
Okean 3 4.0 23:09:18 42° ENE 23:09:18 42° ENE 23:12:44 10° NNE
Meteor 1-23 Rocket 4.3 23:07:55 42° SSW 23:09:49 70° WNW 23:15:23 10° N
Cosmos 2278 Rocket 2.3 23:09:54 51° SSE 23:10:51 58° ESE 23:16:25 10° NNE
Cosmos 1633 Rocket 3.5 23:10:23 10° NNW 23:14:35 48° W 23:15:02 46° WSW
Cosmos 1680 Rocket 3.4 23:22:43 55° SSW 23:23:53 82° WNW 23:29:06 10° NNE
Cosmos 494 Rocket 3.9 23:24:38 60° SSW 23:25:36 86° ESE 23:30:53 10° NNE
Cosmos 1400 Rocket 3.1 23:22:18 10° N 23:25:30 55° NE 23:25:30 55° NE
Cosmos 1624 Rocket 4.0 23:20:48 10° NNW 23:26:07 74° ENE 23:27:15 55° SE
CZ-2C R/B 3.4 23:23:29 10° NNE 23:28:52 52° E 23:29:38 48° SE
Helios 1B rocket 3.2 23:31:35 34° WNW 23:31:35 34° WNW 23:34:09 10° NNW
Cosmos 1048 Rocket 4.4 23:31:20 45° ESE 23:31:40 45° ESE 23:36:38 10° NNE
Meteor 1-12 Rocket 4.2 23:26:42 10° NNW 23:32:23 76° W 23:33:43 54° SSW
Cosmos 2056 Rocket 3.3 23:27:44 10° NNW 23:32:52 87° ENE 23:33:39 65° SSE
ARIANE 5 R/B 2.7 23:36:34 61° WSW 23:36:45 61° W 23:41:10 10° NNW
USA 238 DEB 3.5 23:36:16 37° SW 23:38:52 81° NW 23:45:34 10° NE
USA 238 3.5 23:36:31 38° SW 23:39:05 82° NW 23:45:47 10° NE
ACS3 Solar Sail 2.6 23:36:53 10° NNE 23:42:00 33° E 23:43:11 30° ESE
Okean 2 4.4 23:42:05 33° W 23:42:12 33° WNW 23:45:43 10° N
BREEZE-M DEB (TANK) 4.4 23:35:05 10° W 23:48:46 52° N 23:53:01 10° ENE
ALOS 2 2.9 23:49:18 52° WSW 23:49:20 52° W 23:53:38 10° NNW
Geosat 4.4 23:44:48 10° NE 23:49:35 43° ESE 23:49:42 43° ESE
Cosmos 1441 Rocket 4.0 23:54:17 40° NNW 23:54:17 40° NNW 23:56:33 10° N
Cosmos 1933 Rocket 3.6 23:49:38 10° NNW 23:53:53 65° W 23:53:53 65° W
Cosmos 2369 Rocket 3.9 23:55:37 18° ESE 23:56:15 18° E 23:59:53 10° ENE
